User: anonymous   Login
Location: ????????
(55.6189°N, 38.3031°E)
Time: 10:30:06
(UTC+00:00)
Language:

Cosmos 1980 Rocket - Orbit

View from above orbital plane
View from above orbital plane
View from above satellite
View from above satellite

Ground track
Ground track

The orbit data is extracted from the following two-line orbital elements,

1 19650U 88102B   20022.52618624 +.00000088 +00000-0 +69162-4 0  9994
2 19650 070.9977 178.8637 0014495 186.9638 173.1286 14.15787159610087
Epoch (UTC): 22 January 2020 12:37:42
Eccentricity: 0.0014495
inclination: 70.9977°
perigee height: 829 km
apogee height: 850 km
right ascension of ascending node: 178.8637°
argument of perigee: 186.9638°
revolutions per day: 14.15787159
mean anomaly at epoch: 173.1286°
orbit number at epoch: 61008

The dashed part of the orbit path shows where the satellite is in the earth's shadow,  

DLR